Location: Newark
(51.0089°N, 21.5817°E)
Time: 20:41:26
(UTC+00:00)

XW-2F - Pass Details

Date: 29 February 2020
Orbit: 503 x 521 km, 97.5° (Epoch: 09 April)

Event Time Altitude Azimuth Distance (km) Brightness Sun altitude
Rises 04:39:46 0° 15° (NNE) 2,641 ? -7.1°
Reaches altitude 10° 04:41:53 10° 18° (NNE) 1,752 ? -6.7°
Maximum altitude 04:45:39 66° 102° (ESE) 569 ? -6.1°
Drops below altitude 10° 04:49:24 10° 185° (S) 1,747 ? -5.5°
Sets 04:51:30 0° 188° (S) 2,632 ? -5.2°
